User: anonymous   Login
Location: Nians�bougou
(13.2321°N, 4.9818°W)
Time: 07:33:34
(UTC+00:00)
Language:

Palapa B4 Rocket - Orbit

View from above orbital plane
View from above orbital plane
View from above satellite
View from above satellite

Ground track
Ground track

The orbit data is extracted from the following two-line orbital elements,

1 21965U 92027B   20156.80953065 +.00000387 +00000-0 +42978-4 0  9995
2 21965 019.6859 330.4393 1375281 211.9682 138.9476 12.18508314246715
Epoch (UTC): 04 June 2020 19:25:43
Eccentricity: 0.1375281
inclination: 19.6859°
perigee height: 502 km
apogee height: 2696 km
right ascension of ascending node: 330.4393°
argument of perigee: 211.9682°
revolutions per day: 12.18508314
mean anomaly at epoch: 138.9476°
orbit number at epoch: 24671

The dashed part of the orbit path shows where the satellite is in the earth's shadow,  

DLR